[[{"header":{"parameterUnit":"m.s-1","parameterCategory":1,"la1":30.2991,"la2":30.254,"lo1":-89.0895,"lo2":-89.0444,"dy":0.0017,"dx":0.0017,"nx":28,"ny":28,"refTime":"2025-03-01T09:00:00:Z","depth":0,"parameterNumber":2,"parameterNumberName":"U-component_of_WINDS"},"data":[0,0,0,0,0,0,0,0,0,0,0,0,0,0,0,0,0,0,0,0,0,0,0,0,0,0,0,0,0,0,0,0,0,0,0,0,0,0,0,0,0,0,0,0,0,0,0,0,0,0,0,0,0,0,0,0,0,0,1.6803,1.6804,0,1.6878,1.6879,1.6879,1.6876,1.6874,1.6873,1.6872,1.6954,1.6957,1.696,0,0,0,0,0,0,0,0,0,0,0,0,0,1.6663,1.6666,1.6803,1.6804,1.6805,1.6878,1.6879,1.688,1.6876,1.6874,1.6873,1.6872,1.6953,1.6956,1.696,0,0,0,0,0,0,0,0,0,0,0,0,0,1.673,1.6667,1.6803,1.6812,1.6813,1.6877,1.6879,1.688,1.6876,1.6874,1.6873,1.6871,1.6951,1.6956,1.6961,1.7022,0,0,1.6975,1.6977,0,0,0,0,0,0,0,0,1.6726,1.6735,1.681,1.6811,1.6813,1.6866,1.6859,1.6928,1.6876,1.6852,1.6872,1.687,1.6926,1.6933,1.695,1.7026,1.703,1.6976,1.6978,1.698,1.6982,0,0,0,0,0,0,0,1.6721,1.6732,1.6833,1.6811,1.6813,1.6814,1.6821,1.6872,1.6898,1.6854,1.6854,1.6863,1.6927,1.6946,1.6952,1.7031,1.6975,1.698,1.6983,1.6984,1.7163,1.7165,0,0,0,0,0,0,1.6714,1.6728,1.6831,1.6835,1.6765,1.6818,1.6826,1.6851,1.6897,1.6902,1.6864,1.6862,1.6938,1.6947,1.6955,1.7032,1.698,1.6985,1.6988,1.7162,1.7164,1.7166,0,0,0,0,0,0,1.6711,1.6723,1.6828,1.6782,1.6795,1.6822,1.6849,1.6853,1.6872,1.6904,1.6909,1.6879,1.6938,1.6948,1.7006,1.7034,1.6987,1.6991,1.7159,1.7162,1.7165,1.7184,0,0,0,0,0,0,1.6707,1.6722,1.6745,1.6782,1.6797,1.6875,1.6851,1.6855,1.6879,1.6878,1.6919,1.6925,1.6937,1.6999,1.7011,1.704,1.6995,1.7157,1.7161,1.7164,1.7181,1.7188,1.7193,0,0,0,0,0,1.6702,1.6748,1.6746,1.6758,1.6825,1.6877,1.6886,1.6898,1.6882,1.6905,1.6927,1.6923,1.7029,1.7005,1.7018,1.7049,1.7155,1.716,1.7164,1.7179,1.7186,1.7193,0,0,0,0,0,0,1.6714,1.6753,1.6751,1.681,1.684,1.6876,1.6906,1.6905,1.6942,1.6939,1.6954,1.6964,1.7021,1.7041,1.7013,1.7113,1.709,1.7098,1.7097,1.7105,1.7111,1.7105,1.6999,0,0,0,0,0,1.6724,1.6761,1.6793,1.6842,1.6857,1.6879,1.6902,1.6908,1.6941,1.6954,1.6979,1.7013,1.7054,1.708,1.712,1.7184,1.7194,1.7213,1.7218,1.7223,1.7229,1.7266,1.7275,1.718,1.718,1.718,0,0,1.6744,1.6769,1.6792,1.6845,1.6869,1.6909,1.689,1.6932,1.6962,1.6961,1.7017,1.7037,1.7075,1.7136,1.7165,1.7155,1.7258,1.7228,1.7232,1.7236,1.7272,1.7281,1.7289,1.7183,1.7182,1.7182,0,0,1.68,1.6823,1.6867,1.6891,1.6928,1.6942,1.6953,1.699,1.7002,1.7058,1.7058,1.7095,1.7165,1.7193,1.7216,1.7285,1.7284,1.7297,1.7328,1.7364,1.7371,1.7378,1.7404,1.7413,1.7303,1.7303,1.7303,0,1.6821,1.6879,1.689,1.6932,1.6957,1.6956,1.7002,1.7026,1.7074,1.7092,1.7079,1.7167,1.7193,1.7262,1.7279,1.7297,1.7311,1.7293,1.7369,1.7376,1.7383,1.7407,1.7417,1.7305,1.7305,1.7305,1.7304,0,1.6903,1.6944,1.6975,1.7021,1.7048,1.7092,1.7111,1.7139,1.7143,1.716,1.7218,1.7249,1.7295,1.7312,1.7317,1.7382,1.7374,1.7365,1.7344,1.7393,1.7416,1.7426,1.7307,1.7306,1.7306,1.7306,0,0,1.6969,1.702,1.7032,1.7053,1.7094,1.7126,1.7172,1.7215,1.7239,1.7273,1.7312,1.7372,1.7364,1.739,1.7399,1.7431,1.7485,1.7418,1.7419,1.743,1.756,1.7566,1.7577,1.7484,1.7486,1.7487,1.7557,0,1.7031,1.7109,1.712,1.719,1.7229,1.723,1.7269,1.73,1.7317,1.7354,1.7373,1.7416,1.7401,1.7418,1.7449,1.7471,1.7511,1.7467,1.7523,1.7524,1.7513,1.7589,1.7596,1.766,1.7566,1.7567,1.7569,0,1.7113,1.7148,1.7221,1.7258,1.7274,1.7309,1.7351,1.7386,1.7422,1.7432,1.7462,1.7467,1.7516,1.7492,1.756,1.753,1.7554,1.7569,1.7571,1.7577,1.755,1.7598,1.768,1.769,1.7583,1.7582,1.7581,0,1.7154,1.722,1.7272,1.7291,1.7335,1.736,1.738,1.7413,1.7439,1.7477,1.7494,1.7537,1.7561,1.7595,1.7613,1.7593,1.7681,1.7658,1.7692,1.7692,1.7711,1.7709,1.7799,1.7725,1.7725,1.7725,1.7725,0,1.7222,1.7267,1.7292,1.7324,1.7375,1.7389,1.744,1.746,1.749,1.7528,1.7532,1.7568,1.7588,1.7628,1.7642,1.7697,1.7708,1.7719,1.7722,1.7719,1.7717,1.7735,1.7731,1.7728,1.7727,1.7727,1.7726,0,1.7277,1.7295,1.7353,1.739,1.7401,1.7437,1.747,1.7502,1.7519,1.7567,1.7579,1.7607,1.7654,1.7674,1.7732,1.7742,1.7805,1.7805,1.7793,1.7794,1.7828,1.7824,1.7931,1.7947,1.7863,1.7864,1.7864,0,1.7319,1.7353,1.7394,1.7419,1.744,1.748,1.7506,1.7522,1.755,1.7594,1.7622,1.7668,1.7706,1.7781,1.7807,1.7852,1.7853,1.7888,1.786,1.7856,1.7855,1.7852,1.7857,1.7893,1.7894,1.7894,1.7895,0,1.7392,1.7399,1.7437,1.7478,1.7509,1.7543,1.7576,1.7596,1.7618,1.7649,1.7696,1.7725,1.7784,1.7831,1.7877,1.79,1.7902,1.7904,1.7914,1.7911,1.7902,1.7908,1.7807,1.7901,1.79,1.79,1.79,1.7899,1.7442,1.7473,1.7507,1.7549,1.7575,1.7606,1.7639,1.766,1.7699,1.7747,1.7755,1.7806,1.7843,1.7905,1.7929,1.797,1.7962,1.7977,1.7981,1.7984,1.7987,1.7896,1.7979,1.7979,1.7979,1.7979,1.7978,0,1.7515,1.7537,1.7576,1.7622,1.7655,1.7653,1.769,1.7718,1.7762,1.7796,1.7833,1.7888,1.7933,1.7964,1.801,1.8037,1.804,1.8049,1.8047,1.8053,1.7991,1.7978,1.8047,1.8047,1.8047,1.8047,1.8047,1.8047,1.7557,1.761,1.7623,1.769,1.7712,1.776,1.7782,1.7811,1.7838,1.7899,1.7936,1.7955,1.7988,1.8037,1.808,1.8087,1.8105,1.8115,1.8123,1.8064,1.8057,1.805,1.8038,1.8118,1.8118,1.8181,1.8182,1.8182]},{"header":{"parameterUnit":"m.s-1","parameterCategory":1,"la1":30.2991,"la2":30.254,"lo1":-89.0895,"lo2":-89.0444,"dy":0.0017,"dx":0.0017,"nx":28,"ny":28,"refTime":"2025-03-01T09:00:00:Z","depth":0,"parameterNumber":3,"parameterNumberName":"V-component_of_WINDS"},"data":[0,0,0,0,0,0,0,0,0,0,0,0,0,0,0,0,0,0,0,0,0,0,0,0,0,0,0,0,0,0,0,0,0,0,0,0,0,0,0,0,0,0,0,0,0,0,0,0,0,0,0,0,0,0,0,0,0,0,2.7191,2.7193,0,2.7381,2.7383,2.7385,2.7367,2.7364,2.7361,2.7358,2.7551,2.7558,2.7566,0,0,0,0,0,0,0,0,0,0,0,0,0,2.6806,2.6813,2.7191,2.7194,2.7196,2.7381,2.7383,2.7386,2.7367,2.7364,2.736,2.7357,2.7548,2.7558,2.7567,0,0,0,0,0,0,0,0,0,0,0,0,0,2.6982,2.6815,2.7191,2.7209,2.7212,2.738,2.7383,2.7387,2.7368,2.7364,2.7359,2.7355,2.7545,2.7557,2.7568,2.773,0,0,2.7604,2.7609,0,0,0,0,0,0,0,0,2.6972,2.6996,2.7204,2.7208,2.7212,2.7346,2.7318,2.7502,2.7369,2.7309,2.7358,2.7353,2.7486,2.7502,2.7548,2.7739,2.7747,2.7605,2.7613,2.7618,2.7621,0,0,0,0,0,0,0,2.696,2.6988,2.7266,2.7207,2.7212,2.7205,2.7226,2.7353,2.742,2.7314,2.7313,2.7336,2.7487,2.7536,2.7552,2.775,2.7605,2.7616,2.7623,2.7627,2.8075,2.8079,0,0,0,0,0,0,2.6944,2.6978,2.726,2.7272,2.7079,2.7216,2.7238,2.7307,2.7419,2.7431,2.7339,2.7334,2.7518,2.7538,2.7559,2.775,2.7618,2.7629,2.7635,2.807,2.8076,2.8081,0,0,0,0,0,0,2.6936,2.6969,2.7253,2.7125,2.716,2.7227,2.7305,2.7313,2.7362,2.7438,2.7449,2.7378,2.7516,2.7542,2.7686,2.7757,2.7634,2.7645,2.8064,2.8072,2.8078,2.8138,0,0,0,0,0,0,2.6925,2.6967,2.7031,2.7126,2.7167,2.7379,2.7309,2.732,2.7383,2.7378,2.7477,2.7489,2.7514,2.7668,2.7697,2.7771,2.7654,2.8058,2.8067,2.8076,2.813,2.8146,2.816,0,0,0,0,0,2.6911,2.7041,2.7034,2.7068,2.7249,2.7383,2.7406,2.7434,2.7389,2.7452,2.7499,2.7486,2.7744,2.7683,2.7716,2.7794,2.8054,2.8065,2.8075,2.8123,2.8143,2.816,0,0,0,0,0,0,2.6953,2.7054,2.7048,2.7213,2.7289,2.738,2.7461,2.7455,2.7546,2.7537,2.7566,2.7588,2.7732,2.7778,2.7707,2.7952,2.7893,2.791,2.7918,2.7937,2.7952,2.7938,2.7664,0,0,0,0,0,2.6981,2.7084,2.7166,2.7303,2.7342,2.7394,2.7454,2.7468,2.7548,2.758,2.7639,2.7716,2.7813,2.7878,2.7973,2.8136,2.8154,2.8205,2.822,2.8232,2.8247,2.833,2.8352,2.8116,2.8116,2.8116,0,0,2.7042,2.7109,2.7172,2.7313,2.7374,2.7476,2.7422,2.7534,2.7609,2.7597,2.7736,2.778,2.7868,2.802,2.809,2.8062,2.8316,2.8246,2.8255,2.8264,2.8344,2.8366,2.8386,2.8123,2.8122,2.8121,0,0,2.7203,2.7266,2.7385,2.7446,2.7538,2.7571,2.7599,2.7689,2.7718,2.7857,2.7848,2.7936,2.8107,2.8168,2.8221,2.8397,2.8386,2.8427,2.8506,2.8587,2.8605,2.8622,2.8681,2.8702,2.8441,2.8442,2.8442,0,2.7266,2.7421,2.7447,2.7558,2.7618,2.761,2.7728,2.7786,2.7904,2.7944,2.7911,2.812,2.8179,2.8342,2.8384,2.8429,2.8459,2.8416,2.8601,2.8618,2.8634,2.869,2.8712,2.8446,2.8445,2.8445,2.8444,0,2.7491,2.7598,2.7683,2.7795,2.7865,2.7979,2.8019,2.8086,2.8091,2.8127,2.8264,2.8334,2.844,2.8479,2.8488,2.8642,2.8621,2.8595,2.8535,2.866,2.8713,2.8735,2.8452,2.845,2.8449,2.8448,0,0,2.7689,2.7809,2.784,2.7888,2.7986,2.8068,2.8179,2.8282,2.8336,2.8416,2.8507,2.8648,2.8621,2.8682,2.8696,2.8767,2.8895,2.873,2.8732,2.8756,2.9064,2.9082,2.9108,2.8888,2.8892,2.8896,2.9055,0,2.7857,2.8055,2.8078,2.8254,2.8349,2.834,2.8436,2.8504,2.8539,2.8623,2.866,2.8758,2.8718,2.8753,2.8823,2.8865,2.8957,2.8854,2.897,2.8974,2.8947,2.9136,2.9158,2.9306,2.9077,2.9081,2.9083,0,2.8082,2.8165,2.835,2.8428,2.847,2.8556,2.8648,2.873,2.8805,2.8825,2.8888,2.8891,2.9002,2.8937,2.9087,2.9016,2.9064,2.9091,2.9097,2.9109,2.9036,2.915,2.9354,2.9375,2.9117,2.9114,2.9112,0,2.8202,2.8361,2.8491,2.8533,2.8629,2.8689,2.8731,2.8802,2.886,2.894,2.8977,2.9069,2.9119,2.9188,2.9214,2.9165,2.9361,2.93,2.9377,2.9376,2.9419,2.9416,2.9631,2.9453,2.9453,2.9452,2.9452,0,2.8387,2.85,2.8545,2.8625,2.8748,2.8772,2.8892,2.8932,2.8993,2.9078,2.9075,2.9153,2.9184,2.9266,2.9286,2.9404,2.9428,2.9444,2.9448,2.9444,2.9441,2.9475,2.9465,2.9458,2.9457,2.9456,2.9455,0,2.8544,2.858,2.8719,2.8797,2.8818,2.8906,2.8971,2.9045,2.9076,2.9182,2.9208,2.9256,2.9352,2.9385,2.9502,2.9515,2.9651,2.9647,2.9626,2.9626,2.97,2.9692,2.9944,2.9977,2.9779,2.9781,2.9782,0,2.8659,2.8745,2.883,2.8886,2.893,2.9021,2.9079,2.9103,2.9163,2.9251,2.9314,2.9409,2.9486,2.9639,2.9683,2.977,2.9767,2.9849,2.978,2.9771,2.9764,2.9758,2.9765,2.9862,2.9864,2.9866,2.9867,0,2.8858,2.887,2.8955,2.9044,2.9113,2.9185,2.9253,2.9299,2.9332,2.9399,2.9496,2.9556,2.9673,2.9765,2.9853,2.9894,2.9885,2.9888,2.991,2.9906,2.9889,2.9895,2.9659,2.9882,2.9881,2.988,2.9879,2.9878,2.8996,2.9069,2.9139,2.9232,2.9285,2.9348,2.942,2.9458,2.954,2.9637,2.9645,2.9749,2.9815,2.9932,2.9976,3.0056,3.0032,3.0065,3.0073,3.008,3.0084,2.9876,3.0072,3.0072,3.0071,3.0071,3.0071,0,2.9192,2.9235,2.932,2.9415,2.9486,2.9471,2.9544,2.9604,2.9696,2.9759,2.9833,2.9942,3.003,3.0078,3.0165,3.0219,3.0216,3.0241,3.0236,3.0245,3.0102,3.0073,3.0241,3.0241,3.0241,3.0241,3.0241,3.0241,2.9303,2.9425,2.9444,2.9589,2.9631,2.9733,2.9776,2.9832,2.9881,3.0003,3.0075,3.0106,3.0162,3.0251,3.033,3.0341,3.0372,3.0398,3.0407,3.0273,3.0256,3.0239,3.0212,3.0406,3.0406,3.0543,3.0544,3.0545]}]]